Weather History for KDAB - October, 2012

Change the Weather History Date:

Thursday, October 25, 2012

  Actual Average Record
Temperature  
Mean Temperature 79 °F 72 °F  
Max Temperature 84 °F 80 °F 89 °F (2001)
Min Temperature 73 °F 63 °F 41 °F (1937)
Degree Days  
Heating Degree Days 0 1  
Month to date heating degree days 0 1  
Since 1 July heating degree days 0 1  
Cooling Degree Days 14 7  
Month to date cooling degree days 299 247  
Year to date cooling degree days 3076 2757  
Growing Degree Days 28 (Base 50)    
Moisture  
Dew Point 69 °F    
Average Humidity 72    
Maximum Humidity 79    
Minimum Humidity 65    
Precipitation  
Precipitation 0.04 in 0.11 in 1.22 in (1924)
Month to date precipitation 5.36 3.64  
Year to date precipitation 37.98 43.73  
Sea Level Pressure  
Sea Level Pressure 29.90 in    
Wind  
Wind Speed 15 mph (ENE)    
Max Wind Speed 26 mph    
Max Gust Speed 35 mph    
Visibility 9 miles    
Events Rain    
T = Trace of Precipitation, MM = Missing Value Source: NWS Daily Summary

Daily Weather History Graph

Daily Weather History Graph

Search for Another Location

Airport or City:

Trip Planner

Search our weather history database for the weather conditions in past years. The results will help you decide how hot, cold, wet, or windy it might be!

Date:

Astronomy

Oct. 25, 2012 Rise Set
Actual Time 7:32 AM EDT 6:43 PM EDT
Civil Twilight 7:08 AM EDT 7:07 PM EDT
Nautical Twilight 6:40 AM EDT 7:35 PM EDT
Astronomical Twilight 6:12 AM EDT 8:03 PM EDT
Moon 4:14 PM EDT (10/25) 3:44 AM EDT (10/25)
Length of Visible Light 11h 59m
Length of Day
11h 11m
Waxing Gibbous, 84% of the Moon is Illuminated
Oct 25
Waxing Gibbous
Oct 29
Full
Nov 6
Last Quarter
Nov 13
New
Nov 20
First Quarter

Hourly Weather History & Observations

Time (EDT) Temp. Heat Index Dew Point Humidity Pressure Visibility Wind Dir Wind Speed Gust Speed Precip Events Conditions
12:53 AM 77.0 °F - 66.9 °F 71% 29.96 in 10.0 mi ENE 16.1 mph - N/A   Partly Cloudy
1:53 AM 77.0 °F - 69.1 °F 76% 29.95 in 6.0 mi East 11.5 mph - 0.00 in Rain Rain
2:53 AM 75.0 °F - 71.1 °F 87% 29.92 in 7.0 mi ENE 9.2 mph - 0.02 in Rain Light Rain
3:53 AM 75.0 °F - 69.1 °F 82% 29.91 in 10.0 mi East 11.5 mph - 0.00 in   Overcast
4:53 AM 73.0 °F - 69.1 °F 87% 29.91 in 6.0 mi East 9.2 mph - 0.00 in Rain Light Rain
5:53 AM 73.9 °F - 68.0 °F 82% 29.91 in 10.0 mi East 5.8 mph - 0.01 in   Overcast
6:53 AM 77.0 °F - 69.1 °F 76% 29.91 in 10.0 mi ENE 11.5 mph - 0.00 in   Overcast
7:53 AM 78.1 °F - 69.1 °F 74% 29.92 in 10.0 mi ENE 10.4 mph - N/A   Overcast
8:53 AM 78.1 °F - 70.0 °F 76% 29.94 in 10.0 mi ENE 12.7 mph - N/A   Mostly Cloudy
9:53 AM 80.1 °F 83.2 °F 70.0 °F 71% 29.94 in 10.0 mi ENE 19.6 mph - N/A   Mostly Cloudy
10:53 AM 80.1 °F 82.9 °F 69.1 °F 69% 29.94 in 10.0 mi ENE 15.0 mph 25.3 mph N/A   Mostly Cloudy
11:53 AM 82.9 °F 87.0 °F 70.0 °F 65% 29.94 in 10.0 mi ENE 17.3 mph - N/A   Mostly Cloudy
12:53 PM 81.0 °F 83.8 °F 68.0 °F 65% 29.92 in 10.0 mi ENE 18.4 mph 25.3 mph N/A   Overcast
1:30 PM 75.2 °F - 69.8 °F 83% 29.92 in 2.5 mi ENE 23.0 mph 31.1 mph 0.00 in Rain Light Rain
1:38 PM 73.4 °F - 71.6 °F 94% 29.91 in 5.0 mi ENE 15.0 mph 28.8 mph 0.01 in Rain Light Rain
1:53 PM 73.9 °F - 71.1 °F 91% 29.91 in 9.0 mi NE 15.0 mph - 0.01 in Rain Light Rain
2:53 PM 77.0 °F - 71.1 °F 82% 29.88 in 10.0 mi NNE 11.5 mph - 0.00 in   Overcast
3:53 PM 78.1 °F - 71.1 °F 79% 29.87 in 10.0 mi NNE 9.2 mph - 0.00 in   Overcast
4:53 PM 80.1 °F 82.9 °F 69.1 °F 69% 29.86 in 10.0 mi ENE 18.4 mph - N/A   Overcast
5:53 PM 79.0 °F - 69.1 °F 72% 29.87 in 10.0 mi NE 18.4 mph 23.0 mph N/A   Overcast
6:53 PM 79.0 °F - 69.1 °F 72% 29.88 in 10.0 mi NE 18.4 mph 25.3 mph N/A   Overcast
7:53 PM 78.1 °F - 69.1 °F 74% 29.88 in 10.0 mi NE 19.6 mph 25.3 mph N/A   Overcast
8:53 PM 78.1 °F - 69.1 °F 74% 29.87 in 10.0 mi NE 20.7 mph 27.6 mph N/A   Overcast
9:53 PM 79.0 °F - 68.0 °F 69% 29.87 in 10.0 mi NE 21.9 mph 27.6 mph N/A   Overcast
10:53 PM 77.0 °F - 69.1 °F 76% 29.86 in 9.0 mi NE 20.7 mph 31.1 mph 0.00 in Rain Light Rain
11:53 PM 78.1 °F - 69.1 °F 74% 29.85 in 8.0 mi NE 17.3 mph - 0.00 in Rain Light Rain